Showing default

ICEYE-X6, 46497

Orbit data source: Space-Track

ICEYE-X6, 46497 is a payload satellite owned by ICEYE (FI) in SSO that was launched on Mon, 28 Sep 2020 UTC via a SOYUZ-2-1B launch vehicle from the Plesetsk Missile And Space Complex (PKMTR). Payload-class satellites include a variety of spacecraft equipped with specific instruments for various scientific and technological missions. These include communications satellites like Starlink; space stations such as the ISS; scientific satellites like the Hubble; Earth observation satellites from companies like Planet Labs, Umbra, and HawkEye 360; GPS; miniature CubeSats for education and research; and military/defense satellites.

Loading next visibility...
Identifier
46497, 2020-068M
Orbit
SSO
Country
Flag of FIFI / FIN
Related business
Manufacturer
ICEYE
Mission
Operational Commercial Radar Imaging
Bus & Motor
ICEYE, Unknown motor
Mass
80 kg wet, 80 kg dry
Launch date (UTC)
2020-09-28 (6 years ago)
Launch vehicle
SOYUZ-2-1B
Launch site
Plesetsk Missile And Space Complex (PKMTR)
Object type
Payload
Rocket body
Debris
Shape & HBR
Box + 1 Pan, 2.4 m
Radar Cross Section
1.837 m², Medium (>0.1 m² and < 1m²)

Expand to show TLE details & history
Last TLE update: 9 hours ago

TLE from 9 hours ago
0 ICEYE-X6
1 46497U 20068M   26263.21650407  .00001985  00000-0  14492-3 0  9996
2 46497  98.1050 261.4965 0008152 125.1066 235.0925 15.04926760327520
Epoch: 2026-09-20T05:11Z
TLE epoch observation values (Epoch: 2026-09-20T05:11:45.951Z)
Latitude
0.00005°
Longitude
-175.55884°
Altitude
558.016 km
Speed
7.581 km/s
True Right ascension
17h 25m 59s
True Declination
0° 00' 00"
Sunlit
Object was in daylight at epoch
Visualization orbit readout
Latitude
Unknown
Longitude
Unknown
Altitude
Unknown
Speed
Unknown
Apparent Right ascension
Unknown
Apparent Declination
Unknown
Sunlit
N/A
Visualization observer readout
Local Sidereal Time
06:46:49
Azimuth
Unknown
Elevation
Unknown
Doppler factor
Unknown
Orbital elements
Apogee altitude
554.394 km
Perigee altitude
543.101 km
Semi-major axis
6,926.885 km
Eccentricity
0.00082
Inclination
98.105°
RAAN
261.4965°
Arg. of periapsis
125.1066°
True anomaly
235.01594°
Mean anomaly
235.0925°
Eccentric anomaly
235.05421°
Mean motion
3.76475 °/min
Orbital period
95.62 mins
BSTAR
0.00014492
Loading maneuver chart data...
Computing Atmospheric mass density...
Loading historical data...
Loading historical data...
Loading historical data...
Loading historical data...
Loading historical data...
Loading historical data...
Loading historical data...

Documentation

Showing up to 5 results
|